Weather History for Park Rapids, MN

Change the Weather History Date:

Sunday, January 6, 2013

  Actual Average Record
Temperature  
Mean Temperature 10 °F -  
Max Temperature 16 °F 13 °F 39 °F (2008)
Min Temperature 5 °F -6 °F -40 °F (1968)
Degree Days  
Heating Degree Days 54    
Moisture  
Dew Point 9 °F    
Average Humidity 87    
Maximum Humidity 92    
Minimum Humidity 73    
Precipitation  
Precipitation 0.00 in - - ()
Sea Level Pressure  
Sea Level Pressure 30.09 in    
Wind  
Wind Speed 7 mph (SW)    
Max Wind Speed 13 mph    
Max Gust Speed -    
Visibility 9 miles    
Events      
Averages and records for this station are not official NWS values.
T = Trace of Precipitation, MM = Missing Value Source: NWS Daily Summary

Daily Weather History Graph

Daily Weather History Graph

Search for Another Location

Airport:

Trip Planner

Search our weather history database for the weather conditions in past years. The results will help you decide how hot, cold, wet, or windy it might be!

Date:

Astronomy

Jan. 06, 2013 Rise Set
Actual Time 8:05 AM CST 4:47 PM CST
Civil Twilight 7:30 AM CST 5:22 PM CST
Nautical Twilight 6:51 AM CST 6:00 PM CST
Astronomical Twilight 6:15 AM CST 6:37 PM CST
Moon 2:11 AM CST (1/6) 12:22 PM CST (1/6)
Length of Visible Light 9h 52m
Length of Day
8h 42m
Waning Crescent, 33% of the Moon is Illuminated
Jan 6
Waning Crescent
Jan 11
New
Jan 18
First Quarter
Jan 26
Full
Feb 3
Last Quarter

Hourly Weather History & Observations

Time (CST) Temp. Windchill Dew Point Humidity Pressure Visibility Wind Dir Wind Speed Gust Speed Precip Events Conditions
12:53 AM 9.0 °F -3.2 °F 1.9 °F 73% 30.12 in 10.0 mi NW 8.1 mph - N/A   Overcast
1:53 AM 10.0 °F 0.4 °F 5.0 °F 80% 30.13 in 10.0 mi NW 5.8 mph - N/A   Overcast
2:53 AM 10.0 °F 1.8 °F 6.1 °F 84% 30.14 in 10.0 mi West 4.6 mph - N/A   Overcast
3:31 AM 5.0 °F -5.6 °F 1.4 °F 85% 30.06 in 10.0 mi WNW 5.8 mph - N/A   Mostly Cloudy
3:53 AM 5.0 °F -6.9 °F 3.0 °F 92% 30.16 in 10.0 mi WNW 6.9 mph - N/A   Overcast
4:42 AM 10.4 °F -0.4 °F 6.8 °F 85% 30.06 in 10.0 mi WNW 6.9 mph - N/A   Overcast
4:53 AM 10.9 °F -0.8 °F 8.1 °F 88% 30.16 in 10.0 mi WNW 8.1 mph - N/A   Overcast
5:53 AM 12.9 °F 0.7 °F 9.0 °F 84% 30.17 in 10.0 mi NW 9.2 mph - N/A   Overcast
6:53 AM 10.9 °F 1.4 °F 9.0 °F 92% 30.18 in 10.0 mi NW 5.8 mph - N/A   Overcast
7:53 AM 12.9 °F 2.6 °F 10.0 °F 88% 30.21 in 10.0 mi WNW 6.9 mph - N/A   Overcast
8:53 AM 12.9 °F - 10.0 °F 88% 30.21 in 10.0 mi Calm Calm - N/A   Overcast
9:53 AM 12.9 °F 6.9 °F 10.9 °F 92% 30.22 in 10.0 mi SSW 3.5 mph - N/A   Overcast
10:53 AM 14.0 °F 8.2 °F 10.9 °F 88% 30.23 in 8.0 mi SW 3.5 mph - N/A   Overcast
11:53 AM 15.1 °F 9.4 °F 10.9 °F 84% 30.20 in 10.0 mi Variable 3.5 mph - N/A   Overcast
12:53 PM 15.1 °F 6.4 °F 12.0 °F 88% 30.19 in 10.0 mi SSW 5.8 mph - N/A   Overcast
1:53 PM 16.0 °F 6.3 °F 12.9 °F 88% 30.17 in 10.0 mi South 6.9 mph - N/A   Overcast
2:53 PM 15.8 °F 4.2 °F 12.2 °F 86% 30.06 in 9.0 mi South 9.2 mph - N/A   Overcast
3:53 PM 16.0 °F 4.4 °F 12.0 °F 84% 30.15 in 10.0 mi South 9.2 mph - N/A   Overcast
4:53 PM 16.0 °F 3.6 °F 12.9 °F 88% 30.12 in 8.0 mi South 10.4 mph - N/A   Overcast
5:53 PM 15.1 °F 1.1 °F 12.0 °F 88% 30.11 in 8.0 mi SSW 12.7 mph - N/A   Overcast
6:53 PM 14.0 °F 0.5 °F 12.0 °F 92% 30.07 in 5.0 mi SSE 11.5 mph - N/A   Overcast
7:53 PM 12.9 °F -0.2 °F 10.0 °F 88% 30.04 in 4.0 mi South 10.4 mph - N/A   Overcast
8:29 PM 10.4 °F -4.1 °F 8.6 °F 92% 29.90 in 6.0 mi SE 11.5 mph - N/A   Partly Cloudy
8:53 PM 10.9 °F -4.1 °F 8.1 °F 88% 29.96 in 6.0 mi SE 12.7 mph - N/A   Clear
9:21 PM 10.4 °F -4.1 °F 8.6 °F 92% 29.85 in 7.0 mi SSE 11.5 mph - N/A   Partly Cloudy
9:53 PM 10.0 °F -2.9 °F 7.0 °F 87% 29.95 in 7.0 mi SSE 9.2 mph - N/A   Scattered Clouds
10:53 PM 9.0 °F -4.2 °F 6.1 °F 88% 29.91 in 7.0 mi SE 9.2 mph - N/A   Clear
11:53 PM 12.0 °F -2.0 °F 9.0 °F 88% 29.87 in 7.0 mi South 11.5 mph - N/A   Clear